When you browse on this site, cookies collect data to enhance your experience and personalize the content and advertising you see.
Visit our Privacy Policy to learn more. By continuing to use the site, you agree to this use of cookies and data.
  • In Portugal
  • List of Countries
  • For 7 days
  • Water Temperature
  • Satellite Maps
  • Weather Map
  • Weather Widgets
  • user-avatar
    Login

    Hourly Weather Ghazni

    Today, 17 December, Monday

    Time Temperature Precipitation Wind Pressure Humidity
    00:00 +1°C° 0 mm 0 mps 586 mmHg 27%
    01:00 +1°C° 0 mm 0 mps 586 mmHg 27%
    02:00 +1°C° 0 mm 0 mps 586 mmHg 26%
    03:00 0°C° 0 mm 0 mps 585 mmHg 26%
    04:00 +1°C° 0 mm 1 mps 585 mmHg 26%
    05:00 +1°C° 0 mm 1 mps 585 mmHg 25%
    06:00 0°C° 0 mm 0 mps 585 mmHg 25%
    07:00 0°C° 0 mm 0 mps 586 mmHg 25%
    08:00 0°C° 0 mm 0 mps 586 mmHg 24%
    09:00 +2°C° 0 mm 0 mps 587 mmHg 22%
    10:00 +4°C° 0 mm 0 mps 588 mmHg 19%
    11:00 +6°C° 0 mm 0 mps 589 mmHg 16%
    12:00 +8°C° 0 mm 1 mps 588 mmHg 15%
    13:00 +9°C° 0 mm 1 mps 588 mmHg 15%
    14:00 +9°C° 0 mm 1 mps 588 mmHg 15%
    15:00 +8°C° 0 mm 1 mps 587 mmHg 18%
    16:00 +7°C° 0 mm 1 mps 587 mmHg 21%
    17:00 +6°C° 0 mm 1 mps 586 mmHg 25%
    18:00 +5°C° 0 mm 1 mps 586 mmHg 26%
    19:00 +4°C° 0 mm 1 mps 586 mmHg 26%
    20:00 +3°C° 0 mm 1 mps 586 mmHg 27%
    21:00 +3°C° 0 mm 1 mps 586 mmHg 27%
    22:00 +3°C° 0 mm 1 mps 586 mmHg 27%
    23:00 +1°C° 0 mm 0 mps 586 mmHg 26%

    Tomorrow, 18 December, Tuesday

    Time Temperature Precipitation Wind Pressure Humidity
    00:00 +2°C° 0 mm 1 mps 586 mmHg 26%
    01:00 +2°C° 0 mm 1 mps 585 mmHg 26%
    02:00 +2°C° 0 mm 1 mps 585 mmHg 26%
    03:00 +1°C° 0 mm 1 mps 585 mmHg 26%
    04:00 +1°C° 0 mm 1 mps 585 mmHg 26%
    05:00 +1°C° 0 mm 1 mps 584 mmHg 26%
    06:00 +1°C° 0 mm 1 mps 585 mmHg 25%
    07:00 +1°C° 0 mm 1 mps 585 mmHg 25%
    08:00 +1°C° 0 mm 1 mps 585 mmHg 25%
    09:00 +3°C° 0 mm 1 mps 586 mmHg 22%
    10:00 +4°C° 0 mm 0 mps 587 mmHg 19%
    11:00 +7°C° 0 mm 0 mps 588 mmHg 15%
    12:00 +8°C° 0 mm 1 mps 588 mmHg 15%
    13:00 +9°C° 0 mm 1 mps 587 mmHg 15%
    14:00 +10°C° 0 mm 1 mps 587 mmHg 14%
    15:00 +9°C° 0 mm 1 mps 586 mmHg 17%
    16:00 +7°C° 0 mm 1 mps 585 mmHg 20%
    17:00 +6°C° 0 mm 1 mps 585 mmHg 24%
    18:00 +6°C° 0 mm 1 mps 585 mmHg 24%
    19:00 +5°C° 0 mm 1 mps 585 mmHg 24%
    20:00 +4°C° 0 mm 1 mps 584 mmHg 24%
    21:00 +4°C° 0 mm 1 mps 584 mmHg 24%
    22:00 +4°C° 0 mm 1 mps 584 mmHg 24%
    23:00 +4°C° 0 mm 1 mps 584 mmHg 23%

    Day after tomorrow, 19 December, Wednesday

    Time Temperature Precipitation Wind Pressure Humidity
    00:00 +3°C° 0 mm 1 mps 583 mmHg 23%
    01:00 +3°C° 0 mm 1 mps 583 mmHg 23%
    02:00 +2°C° 0 mm 1 mps 582 mmHg 23%
    03:00 +2°C° 0 mm 1 mps 582 mmHg 22%
    04:00 +1°C° 0 mm 1 mps 582 mmHg 22%
    05:00 +1°C° 0 mm 1 mps 581 mmHg 22%
    06:00 +1°C° 0 mm 1 mps 582 mmHg 21%
    07:00 +1°C° 0 mm 1 mps 582 mmHg 21%
    08:00 +1°C° 0 mm 1 mps 582 mmHg 20%
    09:00 +3°C° 0 mm 1 mps 583 mmHg 18%
    10:00 +5°C° 0 mm 1 mps 584 mmHg 15%
    11:00 +7°C° 0 mm 1 mps 585 mmHg 13%
    12:00 +6°C° 0 mm 2 mps 585 mmHg 13%
    13:00 +7°C° 0 mm 2 mps 584 mmHg 13%
    14:00 +8°C° 0 mm 3 mps 584 mmHg 13%
    15:00 +7°C° 0 mm 3 mps 584 mmHg 15%
    16:00 +6°C° 0 mm 2 mps 583 mmHg 18%
    17:00 +5°C° 0 mm 2 mps 583 mmHg 21%
    18:00 +4°C° 0 mm 2 mps 583 mmHg 22%
    19:00 +3°C° 0 mm 2 mps 584 mmHg 23%
    20:00 +3°C° 0 mm 2 mps 584 mmHg 24%
    21:00 +3°C° 0 mm 1 mps 584 mmHg 25%
    22:00 +2°C° 0 mm 1 mps 584 mmHg 26%
    23:00 +2°C° 0 mm 1 mps 584 mmHg 27%

    20 December, Thursday

    Time Temperature Precipitation Wind Pressure Humidity
    00:00 +2°C° 0 mm 1 mps 584 mmHg 28%
    01:00 +1°C° 0 mm 1 mps 583 mmHg 29%
    02:00 +1°C° 0 mm 1 mps 583 mmHg 29%
    03:00 +1°C° 0 mm 1 mps 583 mmHg 30%
    04:00 +1°C° 0 mm 1 mps 583 mmHg 31%
    05:00 0°C° 0 mm 1 mps 583 mmHg 33%
    06:00 0°C° 0 mm 1 mps 584 mmHg 33%
    07:00 0°C° 0 mm 1 mps 584 mmHg 34%
    08:00 0°C° 0 mm 1 mps 584 mmHg 35%
    09:00 +2°C° 0 mm 1 mps 585 mmHg 31%
    10:00 +4°C° 0 mm 1 mps 586 mmHg 28%
    11:00 +5°C° 0 mm 1 mps 587 mmHg 24%
    12:00 +6°C° 0 mm 1 mps 586 mmHg 23%
    13:00 +7°C° 0 mm 1 mps 586 mmHg 22%
    14:00 +7°C° 0 mm 1 mps 586 mmHg 20%
    15:00 +7°C° 0 mm 1 mps 585 mmHg 23%
    16:00 +6°C° 0 mm 1 mps 585 mmHg 25%
    17:00 +5°C° 0 mm 1 mps 584 mmHg 28%
    18:00 +4°C° 0 mm 1 mps 584 mmHg 30%
    19:00 +3°C° 0 mm 1 mps 584 mmHg 31%
    20:00 +2°C° 0 mm 1 mps 584 mmHg 33%
    21:00 +2°C° 0 mm 1 mps 584 mmHg 33%
    22:00 +2°C° 0 mm 1 mps 584 mmHg 33%
    23:00 0°C° 0 mm 0 mps 584 mmHg 32%

    21 December, Friday

    Time Temperature Precipitation Wind Pressure Humidity
    00:00 +1°C° 0 mm 1 mps 583 mmHg 32%
    01:00 +1°C° 0 mm 1 mps 583 mmHg 32%
    02:00 +1°C° 0 mm 1 mps 583 mmHg 32%
    03:00 +1°C° 0 mm 1 mps 582 mmHg 32%
    04:00 0°C° 0 mm 1 mps 582 mmHg 32%
    05:00 -1°C° 0 mm 0 mps 582 mmHg 32%
    06:00 -1°C° 0 mm 0 mps 582 mmHg 32%
    07:00 -1°C° 0 mm 0 mps 582 mmHg 32%
    08:00 -1°C° 0 mm 0 mps 583 mmHg 32%
    09:00 +1°C° 0 mm 0 mps 584 mmHg 28%
    10:00 +4°C° 0 mm 1 mps 585 mmHg 24%
    11:00 +6°C° 0 mm 1 mps 585 mmHg 20%
    12:00 +7°C° 0 mm 1 mps 585 mmHg 19%
    13:00 +8°C° 0 mm 1 mps 585 mmHg 19%
    14:00 +7°C° 0 mm 2 mps 584 mmHg 18%
    15:00 +7°C° 0 mm 1 mps 584 mmHg 21%
    16:00 +6°C° 0 mm 1 mps 583 mmHg 24%
    17:00 +5°C° 0 mm 1 mps 583 mmHg 27%
    18:00 +4°C° 0 mm 1 mps 583 mmHg 29%
    19:00 +2°C° 0 mm 0 mps 582 mmHg 30%
    20:00 +1°C° 0 mm 0 mps 582 mmHg 31%
    21:00 +1°C° 0 mm 0 mps 582 mmHg 31%
    22:00 +1°C° 0 mm 0 mps 582 mmHg 31%
    23:00 +1°C° 0 mm 0 mps 582 mmHg 31%

    22 December, Saturday

    Time Temperature Precipitation Wind Pressure Humidity
    00:00 +1°C° 0 mm 0 mps 582 mmHg 31%
    01:00 0°C° 0 mm 0 mps 581 mmHg 31%
    02:00 0°C° 0 mm 0 mps 581 mmHg 31%
    03:00 +1°C° 0 mm 1 mps 581 mmHg 31%
    04:00 +1°C° 0 mm 1 mps 580 mmHg 30%
    05:00 +1°C° 0 mm 1 mps 580 mmHg 30%
    06:00 +1°C° 0 mm 1 mps 580 mmHg 30%
    07:00 +1°C° 0 mm 1 mps 581 mmHg 30%
    08:00 +1°C° 0 mm 1 mps 581 mmHg 30%
    09:00 +2°C° 0 mm 1 mps 582 mmHg 26%
    10:00 +4°C° 0 mm 1 mps 583 mmHg 23%
    11:00 +6°C° 0 mm 1 mps 584 mmHg 20%
    12:00 +6°C° 0 mm 1 mps 583 mmHg 19%
    13:00 +6°C° 0 mm 2 mps 583 mmHg 18%
    14:00 +7°C° 0 mm 2 mps 583 mmHg 17%
    15:00 +7°C° 0 mm 1 mps 582 mmHg 19%
    16:00 +6°C° 0 mm 1 mps 582 mmHg 22%
    17:00 +5°C° 0 mm 1 mps 581 mmHg 24%
    18:00 +4°C° 0 mm 1 mps 581 mmHg 25%
    19:00 +3°C° 0 mm 1 mps 581 mmHg 26%
    20:00 +2°C° 0 mm 1 mps 581 mmHg 27%
    21:00 +2°C° 0 mm 1 mps 581 mmHg 27%
    22:00 +2°C° 0 mm 1 mps 581 mmHg 27%
    23:00 +2°C° 0 mm 1 mps 581 mmHg 27%
    Show more